�N����,����,�~����,�C��,���x,�C��,����,���ϕ���,�ő�u�ԕ���,�ő厞����,���˗�,�I�_���x,�n�����x,�ő啗���N��,DTYPE
"20/11/25","00:10",0.0,10.2,78.6,1019.9,326.8,2.7,3.6,327.1,0.00,6.7,12.9,"00:04:26",1
"20/11/25","00:20",0.0,10.2,78.7,1019.7,323.9,2.2,3.7,346.4,0.00,6.7,12.8,"00:11:28",1
"20/11/25","00:30",0.0,10.1,78.9,1019.4,315.0,1.5,2.7,316.8,0.00,6.6,12.9,"00:27:40",1
"20/11/25","00:40",0.0,9.9,79.0,1019.4,322.2,1.7,2.5,329.1,0.00,6.5,12.8,"00:30:24",1
"20/11/25","00:50",0.0,9.3,79.7,1019.7,321.9,1.6,2.1,324.7,0.00,6.0,12.6,"00:41:36",1
"20/11/25","01:00",0.0,8.7,80.3,1019.7,306.8,1.6,2.2,318.3,0.00,5.5,12.6,"00:52:56",1
"20/11/25","01:10",0.0,8.5,81.4,1019.4,314.1,1.8,3.1,331.0,0.00,5.5,12.7,"01:05:52",1
"20/11/25","01:20",0.0,8.4,82.6,1019.2,321.1,2.1,2.8,326.8,0.00,5.7,12.6,"01:14:32",1
"20/11/25","01:30",0.0,8.5,83.5,1019.0,326.2,2.1,3.4,319.6,0.00,5.9,12.4,"01:23:12",1
"20/11/25","01:40",0.0,8.5,84.3,1019.0,328.6,2.2,3.5,331.1,0.00,6.0,12.5,"01:34:56",1
"20/11/25","01:50",0.0,8.4,84.8,1019.2,322.6,2.0,2.9,331.3,0.00,6.0,12.4,"01:45:20",1
"20/11/25","02:00",0.0,8.3,85.5,1019.0,319.4,2.5,3.3,320.7,0.00,6.1,12.6,"01:54:24",1
"20/11/25","02:10",0.0,8.4,86.1,1019.0,321.3,2.7,4.7,313.9,0.00,6.3,12.4,"02:08:00",1
"20/11/25","02:20",0.0,8.5,86.3,1019.0,318.3,2.5,4.1,322.6,0.00,6.4,12.4,"02:15:12",1
"20/11/25","02:30",0.0,8.2,86.5,1019.0,317.0,2.3,4.1,333.8,0.00,6.1,12.2,"02:28:48",1
"20/11/25","02:40",0.0,8.2,86.9,1019.2,323.0,2.8,4.3,327.2,0.00,6.2,12.2,"02:38:48",1
"20/11/25","02:50",0.0,8.2,86.9,1018.7,323.6,2.7,4.1,329.9,0.00,6.2,12.2,"02:48:40",1
"20/11/25","03:00",0.0,8.2,87.0,1019.0,316.9,3.0,4.3,327.7,0.00,6.2,12.2,"02:53:52",1
"20/11/25","03:10",0.0,8.3,87.1,1019.0,320.9,3.4,5.1,336.3,0.00,6.3,12.1,"03:08:24",1
"20/11/25","03:20",0.0,8.2,87.2,1018.7,326.6,3.2,5.2,336.3,0.00,6.2,12.1,"03:16:40",1
"20/11/25","03:30",0.0,8.2,87.3,1018.5,316.7,3.0,4.5,331.9,0.00,6.3,12.1,"03:22:24",1
"20/11/25","03:40",0.0,8.1,87.3,1018.5,315.9,3.0,5.5,332.0,0.00,6.2,12.2,"03:37:12",1
"20/11/25","03:50",0.0,7.8,87.5,1018.5,320.4,3.1,4.4,332.2,0.00,5.9,12.1,"03:49:44",1
"20/11/25","04:00",0.0,7.8,87.7,1018.5,324.1,3.1,5.0,329.4,0.00,5.9,12.0,"03:54:00",1
"20/11/25","04:10",0.0,7.6,87.9,1018.5,326.3,2.0,3.2,327.1,0.00,5.8,12.0,"04:07:04",1
"20/11/25","04:20",0.0,7.2,88.1,1018.5,317.5,2.3,3.3,319.5,0.00,5.4,12.1,"04:13:20",1
"20/11/25","04:30",0.0,7.1,88.4,1018.5,309.4,2.5,4.1,324.4,0.00,5.4,11.9,"04:28:40",1
"20/11/25","04:40",0.0,7.1,88.8,1018.2,323.0,2.6,4.9,328.0,0.00,5.4,11.8,"04:38:24",1
"20/11/25","04:50",0.0,7.3,89.1,1018.0,328.3,3.1,5.4,336.7,0.00,5.7,11.7,"04:48:56",1
"20/11/25","05:00",0.0,7.6,89.1,1018.2,324.4,3.4,5.0,327.9,0.00,6.0,11.6,"04:50:48",1
"20/11/25","05:10",0.0,7.4,89.1,1018.0,327.8,2.7,4.8,334.2,0.00,5.8,11.7,"05:03:28",1
"20/11/25","05:20",0.0,7.2,89.2,1018.2,322.7,2.7,4.2,316.1,0.00,5.6,11.7,"05:13:04",1
"20/11/25","05:30",0.0,7.0,89.4,1018.5,323.1,2.7,4.3,335.7,0.00,5.4,11.7,"05:22:56",1
"20/11/25","05:40",0.0,6.9,89.6,1018.2,325.8,2.8,4.0,344.0,0.00,5.4,11.6,"05:32:24",1
"20/11/25","05:50",0.0,6.8,89.8,1018.0,319.3,2.6,3.9,310.6,0.00,5.3,11.6,"05:43:04",1
"20/11/25","06:00",0.0,6.8,89.9,1018.2,322.0,2.5,4.1,329.4,0.00,5.3,11.6,"05:52:08",1
"20/11/25","06:10",0.0,6.7,90.2,1018.5,322.4,2.2,4.0,330.1,0.00,5.2,11.5,"06:06:40",1
"20/11/25","06:20",0.0,6.6,90.4,1018.5,324.3,2.6,4.9,326.9,0.00,5.2,11.7,"06:19:36",1
"20/11/25","06:30",0.0,7.0,90.5,1018.5,322.6,3.2,5.2,329.8,0.00,5.6,11.4,"06:24:48",1
"20/11/25","06:40",0.0,7.2,90.5,1018.7,322.4,3.6,7.1,323.0,0.00,5.8,11.6,"06:30:24",1
"20/11/25","06:50",0.0,7.1,90.5,1018.5,325.4,3.6,5.8,316.4,0.00,5.7,11.6,"06:49:52",1
"20/11/25","07:00",0.0,6.9,90.5,1018.5,327.0,4.1,6.8,327.6,0.00,5.5,11.4,"06:58:16",1
"20/11/25","07:10",0.0,6.9,90.6,1019.0,328.0,3.6,6.0,329.4,0.00,5.5,11.4,"07:00:48",1
"20/11/25","07:20",0.0,7.0,90.6,1019.2,326.7,3.5,5.6,341.0,0.00,5.6,11.4,"07:15:36",1
"20/11/25","07:30",0.0,7.2,90.6,1019.2,328.0,3.1,5.8,335.4,0.00,5.8,11.4,"07:28:00",1
"20/11/25","07:40",0.0,7.2,90.5,1019.2,321.3,2.3,3.4,339.5,0.01,5.8,11.4,"07:32:48",1
"20/11/25","07:50",0.0,7.4,90.4,1019.0,317.8,2.7,4.5,315.4,0.02,6.0,11.4,"07:43:44",1
"20/11/25","08:00",0.0,7.5,90.2,1019.0,321.6,2.0,3.5,328.0,0.03,6.0,11.6,"07:57:44",1
"20/11/25","08:10",0.0,7.7,90.0,1019.2,314.3,2.6,3.9,331.1,0.04,6.2,11.7,"08:08:48",1
"20/11/25","08:20",0.0,8.3,89.6,1019.4,316.0,2.5,3.6,332.8,0.07,6.7,11.7,"08:17:04",1
"20/11/25","08:30",0.0,8.9,88.6,1019.4,313.0,2.2,4.3,337.0,0.08,7.2,11.7,"08:25:12",1
"20/11/25","08:40",0.0,9.4,87.3,1019.7,317.3,2.1,4.3,323.3,0.09,7.4,11.7,"08:31:04",1
"20/11/25","08:50",0.0,9.5,85.8,1019.7,321.6,3.0,5.0,315.2,0.08,7.3,11.9,"08:48:56",1
"20/11/25","09:00",0.0,9.5,84.9,1019.4,309.0,2.8,3.6,321.8,0.07,7.1,11.7,"08:52:00",1
"20/11/25","09:10",0.0,9.8,83.9,1019.4,323.9,2.8,4.7,329.9,0.13,7.3,12.0,"09:06:48",1
"20/11/25","09:20",0.0,10.1,82.2,1019.7,305.9,2.1,3.6,344.8,0.08,7.2,12.0,"09:10:32",1
"20/11/25","09:30",0.0,10.4,80.9,1019.7,317.3,2.2,4.1,340.9,0.10,7.3,12.1,"09:28:08",1
"20/11/25","09:40",0.0,10.8,79.7,1019.2,311.6,1.8,4.2,339.8,0.14,7.5,12.2,"09:36:48",1
"20/11/25","09:50",0.0,11.2,78.6,1019.2,293.6,1.3,2.9,320.0,0.10,7.7,12.1,"09:41:12",1
"20/11/25","10:00",0.0,11.4,77.7,1019.4,286.2,1.2,2.2,319.9,0.12,7.7,12.3,"09:51:12",1
"20/11/25","10:10",0.0,11.5,76.7,1019.4,303.9,1.6,2.7,330.2,0.12,7.6,12.5,"10:06:08",1
"20/11/25","10:20",0.0,11.7,75.5,1019.4,322.5,2.1,3.2,327.2,0.16,7.6,12.6,"10:16:16",1
"20/11/25","10:30",0.0,12.2,74.0,1019.4,305.1,1.6,3.3,346.4,0.17,7.7,12.6,"10:22:08",1
"20/11/25","10:40",0.0,12.2,72.8,1019.0,298.9,1.5,2.4,321.6,0.07,7.5,12.8,"10:31:20",1
"20/11/25","10:50",0.0,11.8,72.3,1019.0,287.6,1.3,2.4,279.9,0.05,7.0,12.5,"10:40:40",1
"20/11/25","11:00",0.0,11.5,72.0,1018.7,301.2,1.6,3.1,316.0,0.04,6.7,12.6,"10:52:00",1
"20/11/25","11:10",0.0,11.6,72.7,1019.2,303.3,1.3,2.2,337.5,0.04,6.9,12.7,"11:01:36",1
"20/11/25","11:20",0.0,11.5,73.3,1018.5,313.5,1.6,2.4,333.4,0.04,6.9,12.7,"11:19:44",1
"20/11/25","11:30",0.0,11.4,73.3,1018.5,314.9,1.8,3.3,321.2,0.04,6.8,12.8,"11:28:16",1
"20/11/25","11:40",0.0,11.4,73.1,1018.2,314.8,1.7,2.8,336.5,0.04,6.8,12.9,"11:30:32",1
"20/11/25","11:50",0.0,11.3,73.4,1018.2,323.1,2.0,3.6,336.3,0.04,6.8,12.8,"11:49:44",1
"20/11/25","12:00",0.0,11.3,73.9,1018.0,328.2,2.3,3.6,341.7,0.05,6.9,12.9,"11:51:28",1
"20/11/25","12:10",0.0,11.4,74.2,1017.8,323.7,1.8,3.3,345.2,0.06,7.0,13.1,"12:06:16",1
"20/11/25","12:20",0.0,11.6,74.3,1017.5,319.2,1.7,3.1,344.7,0.07,7.2,12.9,"12:10:16",1
"20/11/25","12:30",0.0,11.9,74.0,1017.5,301.6,1.3,2.4,328.0,0.08,7.5,13.0,"12:28:48",1
"20/11/25","12:40",0.0,11.9,73.6,1017.3,324.4,2.0,3.3,338.2,0.06,7.4,12.8,"12:32:48",1
"20/11/25","12:50",0.0,11.9,73.5,1017.5,320.4,2.1,3.9,317.5,0.06,7.4,13.0,"12:42:40",1
"20/11/25","13:00",0.0,11.9,73.7,1017.5,327.3,2.0,3.5,348.4,0.05,7.4,13.2,"12:52:00",1
"20/11/25","13:10",0.0,11.9,73.3,1017.3,326.6,2.3,4.4,329.7,0.06,7.3,13.1,"13:04:24",1
"20/11/25","13:20",0.0,12.0,73.4,1017.3,326.7,2.5,4.4,328.7,0.07,7.4,13.3,"13:19:52",1
"20/11/25","13:30",0.0,12.2,73.6,1016.8,331.3,2.8,4.5,328.5,0.10,7.7,13.1,"13:23:44",1
"20/11/25","13:40",0.0,12.6,74.0,1017.1,304.4,1.8,3.4,333.4,0.15,8.1,13.3,"13:33:04",1
"20/11/25","13:50",0.0,13.2,72.7,1017.1,322.1,2.2,4.0,344.5,0.19,8.5,13.1,"13:46:32",1
"20/11/25","14:00",0.0,13.7,70.6,1016.4,316.8,2.1,3.6,342.7,0.16,8.5,13.4,"13:50:40",1
"20/11/25","14:10",0.0,13.9,69.7,1016.8,297.6,1.7,2.6,333.5,0.11,8.5,13.5,"14:08:16",1
"20/11/25","14:20",0.0,14.0,69.1,1016.6,318.3,1.6,2.8,335.4,0.08,8.5,13.4,"14:10:16",1
"20/11/25","14:30",0.0,14.2,68.8,1016.8,321.9,1.3,1.9,333.2,0.07,8.6,13.5,"14:21:52",1
"20/11/25","14:40",0.0,14.0,68.7,1016.8,323.1,2.1,2.9,339.2,0.06,8.4,13.6,"14:38:56",1
"20/11/25","14:50",0.0,13.8,69.3,1016.6,300.2,1.8,2.8,330.5,0.06,8.3,13.5,"14:46:40",1
"20/11/25","15:00",0.0,13.6,70.2,1017.1,296.9,1.8,3.1,337.7,0.06,8.3,13.6,"14:50:32",1
"20/11/25","15:10",0.0,13.6,70.7,1016.8,308.2,1.8,2.5,311.6,0.07,8.4,13.6,"15:04:24",1
"20/11/25","15:20",0.0,13.7,70.9,1016.8,299.6,1.6,3.1,315.0,0.07,8.6,13.6,"15:19:44",1
"20/11/25","15:30",0.0,13.6,71.0,1016.8,318.9,1.8,3.7,344.3,0.04,8.5,13.7,"15:20:08",1
"20/11/25","15:40",0.0,13.4,71.2,1016.8,327.5,2.3,3.9,335.2,0.03,8.3,13.7,"15:34:08",1
"20/11/25","15:50",0.0,13.3,71.5,1016.8,317.8,1.6,2.2,327.3,0.02,8.3,13.6,"15:40:56",1
"20/11/25","16:00",0.0,13.3,71.9,1016.8,328.2,1.3,2.1,315.4,0.01,8.4,13.8,"15:58:08",1
"20/11/25","16:10",0.0,13.2,72.6,1017.3,316.9,1.5,2.5,339.7,0.00,8.4,13.7,"16:05:52",1
"20/11/25","16:20",0.0,13.1,73.1,1017.3,292.1,0.8,1.4,314.5,0.01,8.4,13.6,"16:10:24",1
"20/11/25","16:30",0.0,12.8,73.4,1017.1,313.0,1.0,1.4,325.1,0.00,8.2,13.7,"16:21:04",1
"20/11/25","16:40",0.0,12.2,74.1,1017.1,306.6,0.8,1.2,284.6,0.00,7.8,13.5,"16:37:10",1
"20/11/25","16:50",0.0,11.6,75.6,1016.6,311.1,1.5,1.9,314.8,0.00,7.5,13.4,"16:45:04",1
"20/11/25","17:00",0.0,11.1,77.1,1017.1,299.7,1.5,2.0,271.6,0.00,7.3,13.4,"16:53:18",1
"20/11/25","17:10",0.0,10.8,78.8,1016.6,325.0,1.6,2.1,321.6,0.00,7.3,13.4,"17:00:56",1
"20/11/25","17:20",0.0,10.4,80.6,1016.8,299.5,1.8,2.4,330.5,0.00,7.3,13.1,"17:11:20",1
"20/11/25","17:30",0.0,10.1,82.1,1017.3,281.4,1.5,1.8,271.9,0.00,7.2,13.0,"17:20:08",1
"20/11/25","17:40",0.0,9.9,83.4,1017.1,304.6,1.8,2.7,315.8,0.00,7.3,12.8,"17:36:16",1
"20/11/25","17:50",0.0,9.6,84.2,1017.1,305.2,1.1,2.2,308.1,0.00,7.1,12.9,"17:41:04",1
"20/11/25","18:00",0.0,9.6,85.3,1016.8,306.5,2.0,3.3,331.3,0.00,7.3,13.0,"17:56:56",1
"20/11/25","18:10",0.0,9.8,86.1,1017.3,316.6,2.6,4.1,332.5,0.00,7.6,12.7,"18:05:12",1
"20/11/25","18:20",0.0,9.7,86.7,1017.3,309.7,2.7,4.2,317.5,0.00,7.6,12.7,"18:16:16",1
"20/11/25","18:30",0.0,9.7,87.0,1017.3,308.6,2.7,3.9,315.0,0.00,7.7,12.8,"18:21:20",1
"20/11/25","18:40",0.0,9.5,87.0,1017.5,308.8,2.2,3.1,317.1,0.00,7.5,12.7,"18:33:28",1
"20/11/25","18:50",0.0,9.1,87.4,1017.5,316.2,1.7,2.7,308.6,0.00,7.2,12.3,"18:47:12",1
"20/11/25","19:00",0.0,8.7,87.6,1017.5,300.8,1.2,2.6,310.2,0.00,6.8,12.3,"18:50:16",1
"20/11/25","19:10",0.0,8.6,87.9,1017.8,329.5,0.2,0.8,87.2,0.00,6.8,12.4,"19:07:20",1
"20/11/25","19:20",0.0,8.1,88.5,1017.5,309.8,1.6,3.2,321.6,0.00,6.4,12.2,"19:19:44",1
"20/11/25","19:30",0.0,7.8,89.0,1018.0,305.8,2.0,3.1,326.6,0.00,6.1,12.3,"19:28:56",1
"20/11/25","19:40",0.0,7.6,89.2,1017.3,292.8,1.3,1.9,301.9,0.00,6.0,12.4,"19:30:08",1
"20/11/25","19:50",0.0,7.4,89.6,1017.3,297.1,1.6,2.2,308.2,0.00,5.8,12.0,"19:49:04",1
"20/11/25","20:00",0.0,7.2,89.8,1017.3,303.3,1.0,2.2,311.2,0.00,5.7,11.9,"19:50:32",1
"20/11/25","20:10",0.0,7.2,90.4,1017.3,276.1,1.2,2.6,269.4,0.00,5.8,12.0,"20:09:20",1
"20/11/25","20:20",0.0,7.7,90.7,1017.5,289.6,2.2,4.1,307.5,0.00,6.3,12.0,"20:12:32",1
"20/11/25","20:30",0.0,7.8,91.0,1017.8,282.5,2.0,2.7,292.4,0.00,6.5,11.8,"20:24:32",1
"20/11/25","20:40",0.0,7.4,91.2,1017.5,264.9,0.6,1.7,276.0,0.00,6.1,11.9,"20:38:00",1
"20/11/25","20:50",0.0,7.1,91.6,1017.8,301.8,1.2,1.8,324.0,0.00,5.9,11.6,"20:43:12",1
"20/11/25","21:00",0.0,6.7,91.8,1017.8,301.0,1.5,2.0,312.8,0.00,5.5,11.7,"20:57:28",1
"20/11/25","21:10",0.0,6.9,92.5,1018.0,295.3,1.7,4.1,332.6,0.00,5.8,11.7,"21:08:32",1
"20/11/25","21:20",0.0,8.2,92.2,1018.0,322.6,4.0,5.6,325.6,0.00,7.1,11.5,"21:14:32",1
"20/11/25","21:30",0.0,8.5,91.7,1017.8,328.0,3.6,6.0,334.8,0.00,7.3,11.5,"21:22:16",1
"20/11/25","21:40",0.0,8.7,91.4,1017.8,318.7,2.8,4.7,322.3,0.00,7.4,11.4,"21:30:24",1
"20/11/25","21:50",0.0,8.3,91.2,1018.0,358.6,0.8,2.0,337.2,0.00,7.0,11.5,"21:40:32",1
"20/11/25","22:00",0.0,7.7,91.1,1017.5,302.3,0.8,2.4,320.6,0.00,6.4,11.5,"21:58:24",1
"20/11/25","22:10",0.0,7.3,91.2,1017.8,321.0,1.3,2.4,310.2,0.00,6.0,11.7,"22:06:32",1
"20/11/25","22:20",0.0,6.9,91.2,1018.0,317.9,2.0,2.6,321.6,0.00,5.6,11.5,"22:18:56",1
"20/11/25","22:30",0.0,6.3,91.3,1018.0,298.8,1.3,1.9,312.4,0.00,5.0,11.4,"22:20:08",1
"20/11/25","22:40",0.0,6.0,91.6,1017.8,293.6,1.5,1.9,271.6,0.00,4.8,11.4,"22:37:52",1
"20/11/25","22:50",0.0,5.8,91.6,1017.5,285.8,1.2,1.6,310.5,0.00,4.6,11.0,"22:43:28",1
"20/11/25","23:00",0.0,5.6,91.7,1017.3,303.0,1.2,1.6,320.9,0.00,4.4,11.2,"22:54:56",1
"20/11/25","23:10",0.0,5.5,91.8,1017.5,298.7,1.1,2.4,322.3,0.00,4.3,11.1,"23:09:52",1
"20/11/25","23:20",0.0,5.6,92.1,1017.3,318.4,1.8,2.5,323.2,0.00,4.5,10.9,"23:12:48",1
"20/11/25","23:30",0.0,5.6,92.1,1017.3,306.7,1.5,2.4,303.3,0.00,4.5,10.8,"23:20:24",1
"20/11/25","23:40",0.0,5.3,92.2,1017.3,301.3,1.0,1.4,303.3,0.00,4.2,11.0,"23:37:04",1
"20/11/25","23:50",0.0,5.1,92.4,1017.3,292.8,1.1,1.4,305.0,0.00,4.0,10.9,"23:42:48",1
"20/11/25","24:00",0.0,5.0,92.7,1017.1,302.8,1.5,2.2,311.3,0.00,4.0,10.8,"23:59:52",1
